TimeEDT,TemperatureF,Dew PointF,Humidity,Sea Level PressureIn,VisibilityMPH,Wind Direction,Wind SpeedMPH,Gust SpeedMPH,PrecipitationIn,Events,Conditions,WindDirDegrees,DateUTC
12:53 AM,61.0,37.0,41,29.99,10.0,NW,11.5,-,N/A,,Mostly Cloudy,310,2013-03-26 04:53:00
1:53 AM,59.0,34.0,39,30.01,10.0,NW,13.8,-,N/A,,Mostly Cloudy,310,2013-03-26 05:53:00
2:53 AM,55.9,37.0,49,30.01,10.0,NW,15.0,-,N/A,,Mostly Cloudy,310,2013-03-26 06:53:00
3:53 AM,55.9,37.9,51,30.00,10.0,NW,20.7,25.3,N/A,,Mostly Cloudy,320,2013-03-26 07:53:00
4:53 AM,55.9,39.9,55,30.00,10.0,NNW,15.0,-,N/A,,Overcast,330,2013-03-26 08:53:00
5:53 AM,55.0,39.0,55,30.03,10.0,NNW,11.5,20.7,N/A,,Overcast,330,2013-03-26 09:53:00
6:53 AM,54.0,37.0,53,30.06,10.0,NNW,11.5,-,N/A,,Mostly Cloudy,330,2013-03-26 10:53:00
7:53 AM,54.0,36.0,51,30.07,10.0,NNW,11.5,-,N/A,,Scattered Clouds,340,2013-03-26 11:53:00
8:53 AM,57.9,33.1,39,30.09,10.0,NNW,16.1,-,N/A,,Scattered Clouds,340,2013-03-26 12:53:00
9:53 AM,60.1,30.9,33,30.12,10.0,NNW,17.3,-,N/A,,Scattered Clouds,330,2013-03-26 13:53:00
10:53 AM,62.1,36.0,38,30.12,10.0,NNW,12.7,-,N/A,,Partly Cloudy,330,2013-03-26 14:53:00
11:53 AM,64.0,32.0,30,30.11,10.0,NW,15.0,25.3,N/A,,Partly Cloudy,310,2013-03-26 15:53:00
12:53 PM,64.9,28.0,25,30.11,10.0,NW,13.8,23.0,N/A,,Scattered Clouds,310,2013-03-26 16:53:00
1:53 PM,66.0,27.0,23,30.10,10.0,NW,13.8,19.6,N/A,,Partly Cloudy,320,2013-03-26 17:53:00
2:53 PM,66.9,28.9,24,30.08,10.0,WNW,11.5,21.9,N/A,,Scattered Clouds,300,2013-03-26 18:53:00
3:53 PM,66.0,30.0,26,30.08,10.0,West,19.6,25.3,N/A,,Scattered Clouds,280,2013-03-26 19:53:00
4:53 PM,66.0,32.0,28,30.07,10.0,NW,19.6,25.3,N/A,,Clear,310,2013-03-26 20:53:00
5:53 PM,64.9,34.0,32,30.09,10.0,NW,17.3,23.0,N/A,,Clear,320,2013-03-26 21:53:00
6:53 PM,63.0,35.1,35,30.09,10.0,WNW,13.8,-,N/A,,Clear,300,2013-03-26 22:53:00
7:53 PM,60.1,33.1,36,30.13,10.0,NW,16.1,-,N/A,,Clear,310,2013-03-26 23:53:00
8:53 PM,57.0,30.0,36,30.16,10.0,NW,10.4,-,N/A,,Clear,320,2013-03-27 00:53:00
9:53 PM,54.0,28.9,38,30.18,10.0,NW,11.5,-,N/A,,Clear,320,2013-03-27 01:53:00
10:53 PM,53.1,28.9,40,30.20,10.0,NW,11.5,-,N/A,,Clear,320,2013-03-27 02:53:00
11:53 PM,51.1,28.9,43,30.22,10.0,NW,11.5,-,N/A,,Clear,320,2013-03-27 03:53:00